Hugo, OK

3:12 AM CDT on July 23, 2017 (GMT -0500)
Stamper Municipal

Weather History for KHHW - March, 2014

Change the Weather History Date:

Wednesday, March 12, 2014

  Actual Average Record
Temperature  
Mean Temperature 55 °F -  
Max Temperature 63 °F 68 °F 69 °F (2016)
Min Temperature 47 °F 44 °F 32 °F (2013)
Degree Days  
Heating Degree Days 10    
Growing Degree Days 5 (Base 50)    
Moisture  
Dew Point 30 °F    
Average Humidity 40    
Maximum Humidity 61    
Minimum Humidity 21    
Precipitation  
Precipitation 0.00 in - - ()
Sea Level Pressure  
Sea Level Pressure 30.11 in    
Wind  
Wind Speed 18 mph (North)    
Max Wind Speed 30 mph    
Max Gust Speed 45 mph    
Visibility 10 miles    
Events      
Averages and records for this station are not official NWS values.
T = Trace of Precipitation, MM = Missing Value Source: NWS Daily Summary

Daily Weather History Graph

Daily Weather History Graph

Search for Another Location

Airport or City:

Trip Planner

Search our weather history database for the weather conditions in past years. The results will help you decide how hot, cold, wet, or windy it might be!

Date:

Astronomy

Mar. 12, 2014 Rise Set
Actual Time 7:36 AM CDT 7:27 PM CDT
Civil Twilight 7:11 AM CDT 7:52 PM CDT
Nautical Twilight 6:42 AM CDT 8:21 PM CDT
Astronomical Twilight 6:13 AM CDT 8:50 PM CDT
Moon 4:06 PM CDT (3/12) 5:00 AM CDT (3/12)
Length of Visible Light 12h 40m
Length of Day
11h 50m
Waxing Gibbous, 85% of the Moon is Illuminated
Mar 12
Waxing Gibbous
Mar 16
Full
Mar 23
Last Quarter
Mar 30
New
Apr 7
First Quarter

Hourly Weather History & Observations

Time (CDT) Temp. Dew Point Humidity Pressure Visibility Wind Dir Wind Speed Gust Speed Precip Events Conditions
12:15 AM 61.3 °F 39.2 °F 44% 29.77 in 10.0 mi NNW 19.6 mph 26.5 mph N/A   Clear
12:35 AM 60.4 °F 39.2 °F 45% 29.78 in 10.0 mi NNW 18.4 mph 24.2 mph N/A   Clear
12:55 AM 59.9 °F 39.4 °F 47% 29.80 in 10.0 mi NNW 16.1 mph 28.8 mph N/A   Clear
1:15 AM 59.0 °F 39.6 °F 49% 29.81 in 10.0 mi North 20.7 mph 29.9 mph N/A   Clear
1:35 AM 56.8 °F 39.6 °F 52% 29.83 in 10.0 mi North 21.9 mph 36.8 mph N/A   Clear
1:55 AM 55.8 °F 39.9 °F 55% 29.84 in 10.0 mi NNW 24.2 mph 32.2 mph N/A   Clear
2:15 AM 55.4 °F 39.9 °F 56% 29.85 in 10.0 mi North 23.0 mph 26.5 mph N/A   Clear
2:35 AM 54.9 °F 40.1 °F 58% 29.87 in 10.0 mi NNW 19.6 mph 24.2 mph N/A   Scattered Clouds
2:55 AM 54.5 °F 39.9 °F 58% 29.88 in 10.0 mi North 24.2 mph 29.9 mph N/A   Mostly Cloudy
3:15 AM 53.6 °F 39.4 °F 59% 29.88 in 10.0 mi NNW 25.3 mph 40.3 mph N/A   Mostly Cloudy
3:35 AM 53.2 °F 39.2 °F 59% 29.90 in 10.0 mi North 29.9 mph 44.9 mph N/A   Mostly Cloudy
3:55 AM 53.1 °F 38.5 °F 58% 29.91 in 10.0 mi North 23.0 mph 35.7 mph N/A   Overcast
4:15 AM 53.2 °F 38.7 °F 58% 29.92 in 10.0 mi North 19.6 mph 28.8 mph N/A   Overcast
4:35 AM 52.3 °F 39.0 °F 61% 29.93 in 10.0 mi North 26.5 mph 38.0 mph N/A   Overcast
4:55 AM 51.4 °F 37.9 °F 60% 29.95 in 10.0 mi North 21.9 mph 36.8 mph N/A   Overcast
5:15 AM 50.9 °F 37.4 °F 60% 29.96 in 10.0 mi North 26.5 mph 35.7 mph N/A   Overcast
5:35 AM 50.5 °F 36.9 °F 59% 29.97 in 10.0 mi North 24.2 mph 31.1 mph N/A   Overcast
5:55 AM 50.9 °F 36.5 °F 58% 29.99 in 10.0 mi North 23.0 mph 38.0 mph N/A   Overcast
6:15 AM 50.0 °F 36.5 °F 60% 30.01 in 10.0 mi North 20.7 mph 29.9 mph N/A   Overcast
6:35 AM 49.5 °F 36.3 °F 61% 30.03 in 10.0 mi North 19.6 mph 25.3 mph N/A   Overcast
6:55 AM 49.1 °F 35.1 °F 58% 30.05 in 10.0 mi North 17.3 mph 28.8 mph N/A   Mostly Cloudy
7:15 AM 48.2 °F 34.7 °F 60% 30.07 in 10.0 mi North 18.4 mph 24.2 mph N/A   Mostly Cloudy
7:35 AM 47.5 °F 33.6 °F 59% 30.08 in 10.0 mi North 17.3 mph 24.2 mph N/A   Scattered Clouds
7:55 AM 47.1 °F 34.0 °F 60% 30.10 in 10.0 mi North 16.1 mph 25.3 mph N/A   Clear
8:15 AM 47.3 °F 33.8 °F 59% 30.11 in 10.0 mi North 17.3 mph 23.0 mph N/A   Clear
8:35 AM 47.5 °F 33.3 °F 58% 30.13 in 10.0 mi North 18.4 mph 26.5 mph N/A   Clear
8:55 AM 48.0 °F 32.4 °F 55% 30.14 in 10.0 mi North 13.8 mph 27.6 mph N/A   Clear
9:15 AM 48.6 °F 31.8 °F 52% 30.15 in 10.0 mi North 21.9 mph 27.6 mph N/A   Clear
9:35 AM 49.6 °F 31.1 °F 49% 30.16 in 10.0 mi North 20.7 mph 31.1 mph N/A   Clear
9:55 AM 50.9 °F 31.1 °F 47% 30.18 in 10.0 mi North 15.0 mph 31.1 mph N/A   Clear
10:15 AM 52.7 °F 30.7 °F 43% 30.19 in 10.0 mi North 15.0 mph 27.6 mph N/A   Clear
10:35 AM 53.1 °F 29.7 °F 41% 30.20 in 10.0 mi North 17.3 mph 25.3 mph N/A   Clear
10:55 AM 53.8 °F 28.8 °F 38% 30.21 in 10.0 mi North 16.1 mph 27.6 mph N/A   Clear
11:15 AM 54.9 °F 27.5 °F 35% 30.22 in 10.0 mi North 18.4 mph 26.5 mph N/A   Clear
11:35 AM 55.8 °F 25.5 °F 31% 30.23 in 10.0 mi NNE 17.3 mph 31.1 mph N/A   Clear
11:55 AM 57.9 °F 26.4 °F 30% 30.23 in 10.0 mi North 12.7 mph 23.0 mph N/A   Clear
12:15 PM 57.9 °F 25.9 °F 29% 30.23 in 10.0 mi North 19.6 mph 26.5 mph N/A   Clear
12:35 PM 58.1 °F 23.7 °F 27% 30.23 in 10.0 mi North 21.9 mph 32.2 mph N/A   Clear
12:55 PM 59.0 °F 24.1 °F 26% 30.23 in 10.0 mi North 17.3 mph 29.9 mph N/A   Clear
1:15 PM 59.9 °F 23.2 °F 24% 30.23 in 10.0 mi North 23.0 mph 29.9 mph N/A   Clear
1:35 PM 60.4 °F 22.8 °F 24% 30.22 in 10.0 mi NNE 17.3 mph 31.1 mph N/A   Clear
1:55 PM 60.8 °F 21.6 °F 22% 30.21 in 10.0 mi NNE 18.4 mph 27.6 mph N/A   Clear
2:15 PM 61.5 °F 24.1 °F 24% 30.21 in 10.0 mi North 16.1 mph 26.5 mph N/A   Clear
2:35 PM 61.7 °F 22.5 °F 22% 30.20 in 10.0 mi NNW 23.0 mph 28.8 mph N/A   Clear
2:55 PM 62.6 °F 21.9 °F 21% 30.20 in 10.0 mi North 20.7 mph 28.8 mph N/A   Clear
3:15 PM 62.4 °F 21.6 °F 21% 30.20 in 10.0 mi North 18.4 mph 26.5 mph N/A   Clear
3:35 PM 61.9 °F 21.0 °F 21% 30.19 in 10.0 mi North 16.1 mph 26.5 mph N/A   Clear
3:55 PM 62.4 °F 21.9 °F 21% 30.19 in 10.0 mi NNE 15.0 mph 28.8 mph N/A   Clear
4:15 PM 63.7 °F 23.0 °F 21% 30.19 in 10.0 mi North 17.3 mph 23.0 mph N/A   Clear
4:35 PM 62.6 °F 22.6 °F 22% 30.18 in 10.0 mi North 17.3 mph 24.2 mph N/A   Clear
4:55 PM 62.8 °F 24.3 °F 23% 30.19 in 10.0 mi North 12.7 mph 26.5 mph N/A   Clear
5:15 PM 63.0 °F 24.1 °F 23% 30.18 in 10.0 mi North 15.0 mph 21.9 mph N/A   Clear
5:35 PM 62.2 °F 23.4 °F 23% 30.18 in 10.0 mi North 11.5 mph 23.0 mph N/A   Clear
5:55 PM 62.4 °F 24.1 °F 23% 30.18 in 10.0 mi North 12.7 mph 17.3 mph N/A   Clear
6:15 PM 61.9 °F 23.9 °F 23% 30.19 in 10.0 mi North 8.1 mph 16.1 mph N/A   Clear
6:35 PM 61.7 °F 24.1 °F 24% 30.19 in 10.0 mi North 10.4 mph - N/A   Clear
6:55 PM 60.6 °F 24.6 °F 25% 30.19 in 10.0 mi NNW 8.1 mph - N/A   Clear
7:15 PM 58.8 °F 25.2 °F 28% 30.20 in 10.0 mi North 5.8 mph - N/A   Clear
7:35 PM 57.0 °F 25.2 °F 29% 30.20 in 10.0 mi North 5.8 mph - N/A   Clear
7:55 PM 55.8 °F 24.8 °F 30% 30.21 in 10.0 mi North 3.5 mph - N/A   Clear
8:15 PM 55.6 °F 24.6 °F 30% 30.21 in 10.0 mi North 3.5 mph - N/A   Clear
8:35 PM 54.1 °F 24.8 °F 32% 30.21 in 10.0 mi Calm Calm - N/A   Clear
8:55 PM 52.9 °F 25.5 °F 35% 30.22 in 10.0 mi NW 4.6 mph - N/A   Clear
9:15 PM 52.0 °F 25.7 °F 36% 30.23 in 10.0 mi NW 4.6 mph - N/A   Clear
9:35 PM 51.8 °F 25.9 °F 37% 30.23 in 10.0 mi WNW 3.5 mph - N/A   Clear
9:55 PM 52.2 °F 25.3 °F 35% 30.24 in 10.0 mi Calm Calm - N/A   Clear
10:15 PM 52.0 °F 25.3 °F 36% 30.24 in 10.0 mi NNW 3.5 mph - N/A   Clear
10:35 PM 51.3 °F 25.7 °F 37% 30.25 in 10.0 mi NNW 3.5 mph - N/A   Clear
10:55 PM 50.2 °F 26.2 °F 39% 30.24 in 10.0 mi NNW 3.5 mph - N/A   Clear
11:15 PM 49.3 °F 26.2 °F 41% 30.24 in 10.0 mi NW 3.5 mph - N/A   Clear
11:35 PM 48.0 °F 26.6 °F 43% 30.25 in 10.0 mi WNW 3.5 mph - N/A   Clear
11:55 PM 48.2 °F 26.2 °F 42% 30.25 in 10.0 mi WNW 4.6 mph - N/A   Clear